This is the latest recevied weather packets stored in our database for station/object W5ITZ. If no packets are shown the sender has not sent any weather packets the latest 10 day(s).
| Time | Temp. | Humidity | Pressure | Rain* | Wind** | Luminosity | Snow |
|---|---|---|---|---|---|---|---|
| 1778089111 | 26.67° C | 87% | 1010.3 hPa | 0 mm | - | 115 W/m² | - |
| 1778088808 | 26.67° C | 87% | 1010.3 hPa | 0 mm | - | 44 W/m² | - |
| 1778088505 | 26.67° C | 87% | 1010.4 hPa | 0 mm | - | 97 W/m² | - |
| 1778088201 | 26.67° C | 86% | 1010.5 hPa | 0 mm | - | 163 W/m² | - |
| 1778087899 | 26.67° C | 86% | 1010.3 hPa | 0 mm | - | 174 W/m² | - |
| 1778087596 | 27.22° C | 86% | 1010.4 hPa | 0 mm | - | 149 W/m² | - |
| 1778087294 | 27.22° C | 85% | 1010.4 hPa | 0 mm | - | 209 W/m² | - |
| 1778086989 | 27.22° C | 85% | 1010.2 hPa | 0 mm | - | 163 W/m² | - |
| 1778086689 | 27.22° C | 84% | 1010.3 hPa | 0 mm | - | 263 W/m² | - |
| 1778086385 | 27.22° C | 85% | 1010.3 hPa | 0 mm | - | 196 W/m² | - |
| 1778086082 | 27.22° C | 85% | 1010.2 hPa | 0 mm | - | 251 W/m² | - |
| 1778085779 | 27.22° C | 86% | 1010.2 hPa | 0 mm | - | 337 W/m² | - |
| 1778085476 | 27.22° C | 86% | 1010.2 hPa | 0 mm | - | 350 W/m² | - |
| 1778085171 | 27.22° C | 86% | 1010.2 hPa | 0 mm | - | 282 W/m² | - |
| 1778084867 | 27.22° C | 86% | 1010.2 hPa | 0 mm | - | 233 W/m² | - |
| 1778084565 | 26.67° C | 86% | 1010.1 hPa | 0 mm | - | 269 W/m² | - |
| 1778084262 | 26.67° C | 87% | 1010.1 hPa | 0 mm | - | 219 W/m² | - |
| 1778083959 | 26.67° C | 87% | 1010.1 hPa | 0 mm | - | 201 W/m² | - |
| 1778083656 | 26.67° C | 87% | 1009.8 hPa | 0 mm | - | 238 W/m² | - |
| 1778083353 | 26.67° C | 86% | 1009.8 hPa | 0 mm | - | 166 W/m² | - |
| 1778083052 | 26.67° C | 88% | 1009.7 hPa | 0 mm | - | 374 W/m² | - |
| 1778082748 | 26.11° C | 91% | 1009.8 hPa | 0 mm | - | 502 W/m² | - |
| 1778081615 | 25.56° C | 92% | 1009.6 hPa | 0 mm | - | 55 W/m² | - |
| 1778081312 | 25.56° C | 91% | 1009.7 hPa | 0 mm | - | 51 W/m² | - |
| 1778081010 | 26.11° C | 91% | 1009.6 hPa | 0 mm | - | 31 W/m² | - |
* Rain latest hour (hover to see other rain measurements)
** Current wind speed in m/s (hover to see current wind gust speed)